Regional Weather Roundup
Issued by NWS Albany, NY

Home | Current Version | Previous Version | Text Only | Print | Product List | Glossary On
Versions: 1 2 3 4 5 6 7 8 9 10 11 12 13 14 15 16 17 18 19 20 21 22 23 24 25 26 27 28 29 30 31 32 33 34 35 36 37 38 39 40 41 42 43 44 45 46 47 48 49 50
030
ASUS41 KALY 141910
RWRALY

NEW YORK STATE HOURLY WEATHER ROUNDUP
NATIONAL WEATHER SERVICE ALBANY NY
200 PM EST SUN FEB 14 2016

NOTE: "FAIR" INDICATES FEW OR NO CLOUDS BELOW 12,000 FEET WITH NO
SIGNIFICANT WEATHER AND/OR NO OBSTRUCTIONS TO VISIBILITY.

NYZ032-033-038>043-046>054-057>066-NYZ062>081-142000-
EAST


CITY           SKY/WX    TMP DP  RH WIND       PRES   REMARKS
ALBANY         SUNNY      5 -19  32 NW8       30.50F WCI  -8
GLENS FALLS    SUNNY      1 -16  44 S10       30.47S WCI -15
POUGHKEEPSIE   SUNNY     14 -16  25 N5        30.48F WCI   6
MONTGOMERY     SUNNY     13 -17  25 NW9       30.45F WCI   1
WHITE PLAINS   SUNNY     11 -12  35 NW10G18   30.43F WCI  -3
ISLIP          SUNNY     11  -9  40 N14       30.47S WCI  -5
NEW YORK CITY  SUNNY     13 -13  30 NW14      30.50F WCI  -2
CENTRAL PARK   SUNNY     12 -18  24 VRB5      30.51F WCI   4
$$

NYZ005>009-017-018-044>046-055-056-142000-
CENTRAL


CITY           SKY/WX    TMP DP  RH WIND       PRES   REMARKS
FULTON         PTSUNNY    5  -7  57 W8        30.51F WCI  -8
SYRACUSE       MOSUNNY    2 -12  52 CALM      30.52F
ROME           SUNNY     -3 -16  53 SW7       30.53F WCI -16
ELMIRA         SUNNY      7 -10  46 VRB3      30.44F
BINGHAMTON     SUNNY      3 -12  49 VRB5      30.34F WCI  -6
MONTICELLO     SUNNY      5 -11  47 W8        30.36F WCI  -8
$$

NYZ026>034-041>043-142000-
NORTH


CITY           SKY/WX    TMP DP  RH WIND       PRES   REMARKS
WATERTOWN      SUNNY     -4 -16  56 W7        30.54F WCI -18
FORT DRUM      NOT AVBL
MASSENA        SUNNY     -5 -19  51 SW12      30.53F WCI -23
SARANAC LAKE   SUNNY     -6 -21  48 SW9       30.27F WCI -23
PLATTSBURGH    SUNNY     -1 -16  48 E7        30.47F WCI -14
$$

NYZ001>004-010>016-019>021-142000-
WEST


CITY           SKY/WX    TMP DP  RH WIND       PRES   REMARKS
NIAGARA FALLS  MOSUNNY    7  -6  55 SE6       30.47  WCI  -3
BUFFALO        MOSUNNY    7  -9  48 CALM      30.46F
DUNKIRK        SUNNY     11  -2  56 NE6       30.45F WCI   1
JAMESTOWN      PTSUNNY   10  -2  56 SW3       30.31F
WELLSVILLE     SUNNY      8 -12  39 NW3       30.30F
ROCHESTER      MOSUNNY    6  -9  50 CALM      30.50F
PENN YAN       SUNNY      8  -8  48 NW5       30.44F WCI   0
$$

             KEY
       WCI = WIND CHILL INDEX
       VSB = VISIBILITY
       HX  = HEAT INDEX
$$




USA.gov is the U.S. government's official web portal to all federal, state and local government web resources and services.